Wetbulb
56.56 56.63 56.45 57.28 58.58 57.33 58.68 60.78 62.88 66.84 70.04 70.43 70.86 70.60 70.27 71.42 71.42 71.62 71.93 72.21 72.21 71.82 70.64 69.59 69.54 69.30 68.94 68.42 67.40 67.40 70.37 70.96
54.50 55.28 55.24 56.36 57.74 56.32 56.79 58.18 59.99 63.09 62.70 65.50 68.36 68.82 69.78 70.22 70.20 70.59 71.25 71.42 71.70 71.36 70.03 69.11 68.64 68.39 68.17 67.60 66.84 67.35 70.33 71.04
53.22 53.24 53.91 54.74 55.52 55.95 57.56 58.30 60.02 61.25 61.54 62.18 65.46 71.86 72.89 72.33 70.36 69.20 70.16 70.33 70.38 70.54 69.70 68.38 67.62 67.42 67.40 66.88 66.53 70.14 70.79 70.73
51.48 51.91 52.16 53.32 53.60 55.76 56.86 57.35 58.44 59.43 60.10 61.20 63.55 66.78 66.22 71.29 70.10 68.30 68.66 69.02 69.31 69.36 68.95 67.91 67.55 70.52 70.06 67.41 69.89 69.94 70.42 70.49
50.47 51.27 51.70 51.66 52.67 53.65 55.01 55.81 56.68 57.27 58.05 58.69 59.77 60.92 64.07 63.23 67.55 72.72 72.88 69.76 72.09 70.84 71.34 71.50 71.06 70.45 69.59 70.04 69.96 69.96 69.88 69.92
49.44 50.12 50.36 50.93 51.85 52.25 53.24 54.10 54.61 55.10 56.12 57.32 57.05 57.97 59.51 61.41 63.13 59.79 66.86 72.20 71.76 72.05 72.57 71.97 71.36 70.86 70.42 69.80 69.95 69.66 69.26 69.38
48.45 49.52 49.18 49.60 50.79 51.19 52.08 52.53 53.01 54.11 54.90 55.77 55.87 56.24 57.08 58.40 59.33 61.52 61.20 60.13 69.23 70.70 70.67 71.10 70.68 70.64 70.49 69.68 68.95 69.39 69.40 68.82
48.26 48.15 48.74 48.83 49.13 49.70 50.99 51.70 52.20 53.14 53.41 54.00 55.08 55.24 55.65 56.27 57.15 58.28 59.79 62.80 60.51 59.35 68.71 69.94 70.57 70.80 69.63 69.60 69.03 68.34 68.85 69.00
47.32 47.69 48.91 48.69 48.80 49.45 50.24 50.58 51.28 51.59 52.41 53.51 53.95 53.90 53.79 54.35 55.35 56.71 58.05 60.08 61.17 63.16 61.52 69.59 69.58 69.43 69.96 69.51 68.65 68.80 68.12 68.33
47.24 47.45 48.18 48.53 48.27 48.68 49.27 49.82 50.28 50.77 51.42 52.03 51.48 51.93 52.73 52.54 53.49 54.90 56.72 57.34 58.31 59.91 63.36 64.97 66.71 68.09 66.29 68.42 68.20 68.05 67.96 68.15
46.17 47.13 47.07 47.57 48.55 49.17 49.66 49.72 49.61 49.54 50.30 49.91 50.13 50.65 50.77 50.64 51.55 53.19 52.30 53.24 55.63 58.32 60.42 63.79 64.84 66.44 67.97 66.69 67.70 67.20 67.60 67.18
45.92 46.24 46.42 47.01 48.18 48.88 49.36 49.43 49.68 49.84 49.54 49.18 49.42 49.56 48.26 48.20 48.62 48.67 48.74 48.38 49.97 53.15 54.84 59.91 59.78 63.26 65.36 65.95 67.31 67.48 68.01 67.48
44.74 44.78 45.58 45.97 46.05 45.72 46.20 46.16 47.71 48.31 48.13 48.28 48.09 47.94 46.51 45.38 45.72 46.44 46.96 46.95 47.98 49.33 50.52 53.60 58.93 60.09 64.61 64.99 65.05 67.31 67.91 67.80
43.84 44.02 44.60 44.77 45.10 45.28 45.49 45.79 46.77 46.94 47.15 47.26 47.06 46.85 46.44 45.08 44.41 44.94 46.34 45.73 46.51 47.81 48.85 50.74 53.68 61.03 59.91 61.11 60.31 62.09 64.35 67.24
42.75 43.45 43.92 43.86 43.67 44.96 45.12 46.12 46.61 45.24 44.99 45.26 45.61 45.82 45.54 43.80 43.38 43.19 43.54 44.47 45.02 45.94 47.68 48.13 49.45 55.66 61.74 59.44 57.01 57.57 61.74 64.38
42.53 42.89 43.10 42.79 42.98 42.35 41.87 41.63 40.82 41.94 41.90 43.14 44.54 45.34 44.52 43.24 42.40 42.11 42.16 42.62 41.93 43.45 46.21 47.48 48.80 48.10 54.56 62.05 63.87 63.16 60.08 58.58
42.20 42.44 42.18 42.35 41.79 40.53 40.58 40.10 40.16 40.98 41.00 41.05 42.72 43.58 43.45 42.06 41.15 40.88 40.42 41.59 41.42 41.75 42.30 43.54 44.77 44.55 47.28 50.74 59.57 63.51 60.96 58.06
41.23 41.04 41.16 41.53 40.82 40.55 38.90 38.55 38.25 38.07 38.25 38.67 40.25 41.68 42.64 42.26 40.58 39.50 39.78 39.60 39.21 39.90 41.02 42.43 43.35 44.40 46.86 48.82 51.43 56.72 58.31 58.18
39.29 39.78 39.47 39.96 39.20 39.05 39.27 37.93 37.65 37.34 36.98 37.27 36.90 38.09 39.35 39.11 39.52 38.22 38.25 38.28 38.58 39.46 39.24 40.82 42.04 43.45 45.96 48.33 50.94 53.13 60.02 61.25
38.49 38.06 38.23 38.22 38.19 39.20 40.25 39.02 37.37 37.44 37.04 36.49 36.37 36.45 36.67 37.97 37.89 38.21 37.65 37.52 37.91 37.99 39.04 39.90 42.13 43.04 44.85 46.42 49.28 53.09 58.33 63.01
MSLP
1019.62 1019.24 1018.96 1018.48 1018.41 1018.60 1018.29 1017.67 1017.23 1016.72 1016.23 1016.18 1016.09 1016.01 1015.97 1015.87 1015.87 1015.85 1015.75 1015.65 1015.70 1015.82 1015.95 1016.01 1016.16 1016.27 1016.30 1016.32 1016.31 1016.30 1015.64 1014.70
1020.03 1019.60 1019.49 1019.21 1018.56 1018.62 1018.63 1018.18 1017.64 1017.09 1016.73 1016.54 1016.23 1015.90 1015.59 1015.61 1015.66 1015.67 1015.53 1015.41 1015.39 1015.64 1015.87 1016.00 1015.99 1016.09 1016.18 1016.30 1016.35 1016.23 1015.54 1014.61
1020.58 1020.20 1020.02 1019.77 1018.95 1018.81 1018.51 1018.17 1017.80 1017.40 1017.03 1016.79 1016.33 1015.36 1014.79 1014.95 1015.03 1015.05 1015.27 1015.35 1015.32 1015.31 1015.41 1015.71 1015.87 1016.05 1016.03 1016.08 1016.24 1015.32 1014.56 1014.23
1021.04 1021.03 1020.76 1020.31 1019.56 1019.18 1018.72 1018.33 1018.15 1017.84 1017.61 1017.31 1016.61 1016.22 1016.01 1015.19 1014.94 1015.00 1015.00 1014.94 1014.97 1015.01 1015.16 1015.58 1015.67 1014.85 1014.67 1015.64 1015.31 1014.57 1014.19 1014.03
1021.63 1021.71 1021.56 1021.09 1020.37 1019.88 1019.21 1018.78 1018.60 1018.17 1018.03 1017.94 1017.29 1016.68 1016.26 1016.10 1015.46 1014.54 1014.28 1014.24 1014.25 1014.13 1014.26 1014.43 1014.25 1014.13 1013.62 1013.49 1013.70 1013.81 1013.63 1013.46
1022.40 1022.12 1022.04 1021.76 1021.09 1020.53 1020.07 1019.49 1019.23 1018.77 1018.51 1018.38 1017.95 1017.12 1016.60 1016.20 1015.87 1015.95 1015.10 1014.05 1013.72 1013.55 1013.49 1013.22 1012.98 1013.24 1013.26 1013.20 1013.30 1013.16 1012.96 1013.03
1022.98 1022.62 1022.49 1022.13 1021.54 1021.25 1020.77 1020.36 1019.86 1019.55 1018.89 1018.73 1018.55 1017.92 1017.29 1016.77 1016.11 1015.58 1015.46 1015.26 1014.17 1013.56 1013.34 1012.74 1012.39 1012.34 1012.49 1012.79 1012.72 1012.77 1012.84 1012.70
1023.52 1023.13 1022.92 1022.62 1022.16 1021.79 1021.10 1020.76 1020.42 1019.87 1019.46 1019.30 1018.98 1018.61 1017.98 1017.23 1016.50 1015.72 1015.14 1014.66 1015.02 1014.75 1013.44 1012.81 1011.98 1011.76 1011.59 1011.78 1012.10 1011.97 1011.97 1012.32
1023.76 1023.55 1023.32 1022.85 1022.45 1021.94 1021.34 1020.97 1020.56 1020.07 1019.73 1019.50 1019.26 1019.02 1018.50 1017.88 1016.76 1015.99 1015.46 1014.95 1014.75 1014.05 1013.57 1012.42 1012.08 1011.56 1011.16 1010.97 1011.47 1011.73 1011.36 1011.38
1024.00 1023.89 1023.47 1023.14 1022.85 1022.41 1021.78 1021.41 1020.91 1020.41 1019.97 1019.62 1019.75 1019.45 1018.88 1018.21 1017.14 1016.36 1015.82 1015.54 1014.73 1014.06 1013.36 1012.63 1011.66 1011.35 1011.08 1010.61 1010.12 1010.41 1010.70 1010.74
1024.16 1023.98 1023.69 1023.23 1022.97 1022.42 1022.01 1021.83 1021.19 1020.82 1020.37 1020.08 1019.98 1019.53 1019.34 1018.70 1017.72 1016.92 1016.93 1016.19 1015.11 1014.05 1013.15 1012.49 1011.58 1010.75 1010.42 1010.39 1010.09 1009.67 1009.98 1009.41
1024.46 1024.15 1023.96 1023.39 1022.75 1022.36 1021.89 1021.49 1021.06 1020.78 1020.39 1020.35 1020.19 1019.74 1019.68 1019.36 1018.54 1017.94 1017.44 1016.79 1016.00 1015.12 1014.15 1012.82 1012.33 1010.93 1010.07 1009.63 1009.61 1009.66 1009.40 1008.51
1024.59 1024.29 1024.03 1023.56 1022.93 1022.51 1022.07 1021.71 1021.27 1020.71 1020.52 1020.54 1020.22 1019.99 1019.72 1019.58 1018.92 1018.15 1017.55 1017.04 1016.22 1015.45 1014.71 1013.46 1011.82 1011.16 1009.99 1009.05 1008.72 1008.21 1008.09 1008.26
1024.67 1024.53 1024.43 1024.17 1023.72 1023.19 1022.82 1022.27 1021.68 1021.24 1020.73 1020.52 1020.37 1020.13 1019.77 1019.45 1019.12 1018.46 1017.77 1017.22 1016.39 1015.56 1014.74 1013.51 1012.19 1010.78 1009.63 1008.71 1007.83 1007.60 1007.58 1007.43
1024.69 1024.87 1024.90 1024.78 1024.55 1023.41 1023.01 1022.36 1021.56 1021.10 1020.89 1020.52 1020.50 1020.31 1020.00 1019.67 1019.35 1018.87 1018.19 1017.43 1016.41 1015.56 1014.78 1013.96 1012.42 1010.79 1009.11 1008.30 1007.28 1005.91 1006.34 1006.61
1024.95 1025.04 1024.99 1024.96 1024.79 1024.21 1023.71 1022.98 1022.40 1022.25 1022.03 1021.47 1020.71 1020.32 1020.04 1019.76 1019.44 1018.85 1018.11 1017.57 1016.88 1015.72 1014.84 1014.07 1012.94 1011.42 1009.86 1007.87 1006.92 1005.84 1005.42 1005.31
1025.18 1025.18 1025.19 1025.18 1024.96 1024.76 1024.21 1023.74 1023.44 1022.87 1022.41 1021.97 1021.23 1020.44 1019.99 1019.75 1019.61 1018.92 1018.19 1017.43 1016.78 1015.89 1014.99 1014.15 1013.31 1012.26 1010.81 1009.23 1007.11 1006.00 1005.80 1005.56
1025.40 1025.29 1025.23 1025.44 1025.35 1025.03 1024.76 1024.25 1023.86 1023.31 1022.93 1022.36 1021.65 1020.66 1019.72 1019.47 1019.37 1018.85 1018.10 1017.65 1016.84 1016.03 1014.96 1014.01 1012.93 1011.83 1010.66 1009.24 1008.07 1006.17 1004.68 1004.86
1025.56 1025.41 1025.43 1025.54 1025.58 1025.36 1024.80 1024.49 1024.03 1023.59 1023.24 1022.63 1022.00 1020.95 1020.15 1019.77 1019.27 1018.67 1018.05 1017.55 1016.76 1015.94 1014.97 1013.81 1012.59 1011.28 1010.08 1008.84 1007.77 1006.76 1004.77 1004.15
1025.64 1025.70 1025.59 1025.67 1025.71 1025.30 1024.67 1024.37 1024.26 1023.89 1023.53 1022.91 1022.23 1021.61 1021.08 1020.30 1019.59 1018.84 1018.21 1017.54 1016.63 1015.74 1014.52 1013.49 1012.16 1011.06 1009.73 1008.62 1007.51 1006.11 1004.55 1002.68
Wind_Speed
14 16 18 19 17 23 21 21 20 18 8 8 9 8 9 8 9 9 10 10 9 9 8 9 9 9 8 7 6 6 11 6
16 15 16 14 13 18 18 19 19 17 20 18 13 10 10 9 9 12 11 11 10 10 8 8 9 9 9 6 7 7 12 9
15 16 16 15 12 12 14 16 14 14 16 17 13 10 9 11 11 9 11 11 11 11 9 9 8 9 9 7 7 9 11 7
15 15 16 15 11 12 11 10 10 10 12 13 9 11 11 13 9 8 11 11 12 11 10 6 8 10 9 11 9 12 9 8
15 15 15 15 11 10 7 7 8 8 12 13 11 10 7 7 9 8 8 12 10 13 12 11 13 11 11 9 12 12 8 8
15 15 14 14 9 9 9 8 9 8 10 12 11 8 10 9 5 7 11 9 11 11 8 12 13 15 14 13 13 10 8 7
14 13 13 12 11 9 8 9 9 10 9 11 11 10 10 11 10 9 7 7 10 10 9 13 14 15 15 15 15 14 14 8
12 12 12 11 10 10 8 8 9 8 9 10 13 11 10 11 11 11 10 8 7 8 12 11 15 14 15 16 16 15 15 14
12 12 12 11 11 9 8 8 8 8 8 11 13 13 14 14 11 11 11 11 14 11 10 14 12 12 18 15 14 16 15 15
10 10 12 12 11 8 7 8 8 8 9 9 14 14 14 14 12 11 12 12 12 12 11 10 9 12 10 12 11 14 17 16
10 10 12 12 10 8 7 7 6 7 7 9 13 12 14 13 12 12 14 13 13 12 11 11 9 11 14 12 11 11 15 15
9 9 12 11 7 7 6 6 6 6 7 9 13 11 14 13 11 13 13 10 12 13 17 13 11 11 12 13 13 12 12 15
10 11 12 10 8 9 8 9 7 8 9 12 13 13 13 12 10 11 11 12 14 13 12 16 13 11 14 13 14 16 18 13
10 11 11 9 8 7 7 7 6 7 9 11 14 15 14 12 13 12 14 11 13 13 14 12 12 11 9 11 10 11 12 14
9 10 10 9 11 7 8 7 7 9 11 11 13 14 14 14 14 13 13 12 11 13 13 14 12 14 18 10 8 13 10 11
8 8 9 10 11 10 11 9 10 9 10 11 12 14 14 13 14 15 14 11 13 12 13 13 12 12 15 13 20 14 10 12
7 8 9 9 10 10 9 9 8 8 9 13 13 12 12 12 14 15 14 12 13 15 15 14 11 12 11 12 17 13 19 12
7 8 8 10 10 10 10 11 11 9 11 10 10 10 10 13 16 14 14 14 14 14 16 17 14 14 12 11 12 11 11 15
7 8 9 10 10 10 10 11 11 11 12 10 13 11 12 15 17 15 13 16 16 14 15 16 16 14 15 11 11 13 14 12
8 9 9 10 10 10 10 11 8 8 10 10 9 11 12 17 16 16 16 18 15 16 13 13 15 13 18 14 12 12 14 12
Wind_Direction
27 24 17 16 23 15 10 12 11 358 342 312 286 268 255 233 232 236 240 247 251 247 224 217 221 224 223 209 205 224 270 256
21 23 18 9 14 16 7 9 9 6 11 6 327 290 255 240 237 234 240 239 240 247 240 228 228 223 233 227 221 225 245 251
22 17 15 4 9 8 5 7 11 3 4 359 344 329 291 263 244 253 219 235 244 242 240 224 232 241 234 235 224 239 232 239
18 15 12 2 2 360 6 6 6 5 4 355 345 335 337 311 290 275 249 231 232 236 242 224 221 247 213 211 233 243 240 257
16 14 11 7 360 355 2 359 356 357 1 356 343 333 336 334 338 300 260 229 241 223 225 228 236 239 243 231 219 230 236 233
13 16 11 11 357 2 355 358 355 357 356 0 346 340 336 332 319 327 327 279 260 255 249 248 232 234 240 246 238 238 230 236
12 14 12 7 7 1 360 357 360 346 354 4 352 343 336 329 321 312 309 325 304 257 252 251 238 234 234 235 238 235 242 240
10 11 11 5 6 1 357 4 350 353 354 359 355 345 341 326 319 312 304 309 312 321 284 239 248 244 231 231 238 238 232 233
11 4 7 6 4 3 1 8 351 356 354 357 360 350 341 331 320 316 317 314 307 300 301 259 251 250 245 229 224 240 240 234
12 5 6 5 8 2 359 5 354 358 354 357 1 345 344 333 324 318 326 313 302 294 281 297 235 240 248 257 228 223 232 236
11 9 10 4 5 358 0 2 359 360 358 359 356 348 348 336 324 326 335 318 314 296 290 290 273 232 234 235 234 223 228 223
8 13 10 1 3 356 356 355 7 359 2 3 353 356 349 341 331 328 323 318 315 312 312 297 293 273 253 241 238 235 238 233
10 9 9 3 2 358 352 353 1 360 2 358 353 352 357 340 333 323 325 322 312 301 298 304 286 281 256 242 248 240 238 233
11 10 7 7 355 352 347 343 341 350 355 352 355 350 353 342 342 333 331 319 320 314 314 300 289 273 272 242 232 232 239 229
11 7 4 10 355 356 349 342 345 359 356 350 346 346 350 348 344 336 330 322 316 310 305 302 300 299 267 247 224 239 231 220
12 7 10 11 8 1 356 353 352 353 345 339 333 345 346 350 342 337 331 327 315 317 318 308 301 297 309 262 246 266 232 226
12 3 14 14 12 4 356 356 346 344 342 337 338 337 343 351 345 337 335 331 325 320 314 306 299 293 293 302 287 243 249 262
11 6 20 14 8 8 1 356 352 344 348 339 338 341 343 356 345 343 338 332 328 321 313 306 299 290 282 281 281 275 235 229
15 14 14 14 7 1 2 1 357 347 347 344 342 343 348 348 346 345 344 334 330 324 313 305 300 292 288 281 282 290 252 234
18 12 11 14 2 356 8 7 1 351 349 349 347 347 340 343 342 343 345 341 335 328 319 309 305 300 292 283 286 278 289 240